• In Uzbekistan
  • List of Countries
  • For 7 days
  • Water Temperature
  • Satellite Maps
  • Weather Map
  • Weather Widgets
  • user-avatar
    Login

    Hourly Weather Canillo

    Today, 27 July, Thursday

    Time Temperature Precipitation Wind Pressure Humidity
    00:00 +10°C° 0 mm 1 mps 620 mmHg 84%
    01:00 +10°C° 0 mm 1 mps 620 mmHg 83%
    02:00 +10°C° 0 mm 1 mps 620 mmHg 81%
    03:00 +10°C° 0 mm 1 mps 619 mmHg 80%
    04:00 +11°C° 0 mm 1 mps 620 mmHg 76%
    05:00 +11°C° 0 mm 1 mps 620 mmHg 73%
    06:00 +12°C° 0 mm 1 mps 620 mmHg 70%
    07:00 +15°C° 0 mm 1 mps 621 mmHg 61%
    08:00 +18°C° 0 mm 1 mps 623 mmHg 53%
    09:00 +21°C° 0 mm 1 mps 624 mmHg 44%
    10:00 +21°C° 0 mm 2 mps 624 mmHg 42%
    11:00 +23°C° 0 mm 2 mps 624 mmHg 39%
    12:00 +24°C° 0 mm 2 mps 624 mmHg 36%
    13:00 +24°C° 0 mm 2 mps 624 mmHg 37%
    14:00 +24°C° 0 mm 3 mps 624 mmHg 37%
    15:00 +24°C° 0 mm 3 mps 623 mmHg 38%
    16:00 +23°C° 0 mm 2 mps 623 mmHg 42%
    17:00 +23°C° 0 mm 2 mps 623 mmHg 45%
    18:00 +21°C° 0 mm 2 mps 622 mmHg 49%
    19:00 +18°C° 0 mm 2 mps 622 mmHg 58%
    20:00 +16°C° 0 mm 1 mps 621 mmHg 68%
    21:00 +13°C° 0 mm 1 mps 621 mmHg 77%
    22:00 +13°C° 0 mm 1 mps 621 mmHg 78%
    23:00 +13°C° 0 mm 1 mps 621 mmHg 80%

    Tomorrow, 28 July, Friday

    Time Temperature Precipitation Wind Pressure Humidity
    00:00 +12°C° 0 mm 1 mps 621 mmHg 81%
    01:00 +12°C° 0 mm 1 mps 621 mmHg 82%
    02:00 +12°C° 0 mm 1 mps 621 mmHg 82%
    03:00 +11°C° 0 mm 1 mps 621 mmHg 83%
    04:00 +12°C° 0 mm 1 mps 621 mmHg 80%
    05:00 +13°C° 0 mm 1 mps 622 mmHg 78%
    06:00 +14°C° 0 mm 1 mps 622 mmHg 75%
    07:00 +16°C° 0 mm 1 mps 623 mmHg 68%
    08:00 +18°C° 0 mm 2 mps 624 mmHg 61%
    09:00 +20°C° 0 mm 2 mps 625 mmHg 54%
    10:00 +21°C° 0 mm 3 mps 625 mmHg 53%
    11:00 +22°C° 0 mm 3 mps 625 mmHg 51%
    12:00 +22°C° 0 mm 3 mps 626 mmHg 49%
    13:00 +22°C° 0.1 mm 3 mps 625 mmHg 50%
    14:00 +22°C° 0.1 mm 3 mps 625 mmHg 51%
    15:00 +22°C° 0.1 mm 3 mps 625 mmHg 51%
    16:00 +21°C° 0.1 mm 3 mps 624 mmHg 55%
    17:00 +21°C° 0.1 mm 2 mps 624 mmHg 59%
    18:00 +20°C° 0.1 mm 2 mps 624 mmHg 63%
    19:00 +19°C° 0.1 mm 1 mps 623 mmHg 71%
    20:00 +16°C° 0.1 mm 1 mps 623 mmHg 79%
    21:00 +14°C° 0.1 mm 1 mps 623 mmHg 87%
    22:00 +14°C° 0.1 mm 1 mps 622 mmHg 87%
    23:00 +13°C° 0.1 mm 1 mps 622 mmHg 87%

    Day after tomorrow, 29 July, Saturday

    Time Temperature Precipitation Wind Pressure Humidity
    00:00 +13°C° 0.1 mm 1 mps 622 mmHg 87%
    01:00 +13°C° 0.1 mm 1 mps 622 mmHg 87%
    02:00 +13°C° 0.1 mm 1 mps 622 mmHg 87%
    03:00 +13°C° 0.1 mm 1 mps 622 mmHg 87%
    04:00 +13°C° 0 mm 1 mps 622 mmHg 84%
    05:00 +14°C° 0 mm 1 mps 622 mmHg 81%
    06:00 +15°C° 0 mm 1 mps 623 mmHg 78%
    07:00 +18°C° 0 mm 1 mps 624 mmHg 69%
    08:00 +20°C° 0 mm 2 mps 624 mmHg 59%
    09:00 +23°C° 0 mm 2 mps 625 mmHg 49%
    10:00 +24°C° 0 mm 3 mps 626 mmHg 44%
    11:00 +25°C° 0 mm 3 mps 626 mmHg 39%
    12:00 +27°C° 0 mm 4 mps 626 mmHg 34%
    13:00 +27°C° 0 mm 4 mps 626 mmHg 34%
    14:00 +27°C° 0 mm 4 mps 625 mmHg 33%
    15:00 +27°C° 0 mm 5 mps 625 mmHg 33%
    16:00 +26°C° 0 mm 4 mps 624 mmHg 38%
    17:00 +24°C° 0 mm 3 mps 624 mmHg 43%
    18:00 +22°C° 0 mm 3 mps 623 mmHg 48%
    19:00 +20°C° 0 mm 2 mps 623 mmHg 54%
    20:00 +17°C° 0 mm 2 mps 622 mmHg 60%
    21:00 +15°C° 0 mm 1 mps 622 mmHg 66%
    22:00 +15°C° 0 mm 1 mps 621 mmHg 66%
    23:00 +14°C° 0 mm 1 mps 621 mmHg 67%

    30 July, Sunday

    Time Temperature Precipitation Wind Pressure Humidity
    00:00 +14°C° 0 mm 1 mps 621 mmHg 67%
    01:00 +13°C° 0 mm 1 mps 621 mmHg 66%
    02:00 +13°C° 0 mm 1 mps 620 mmHg 66%
    03:00 +13°C° 0 mm 1 mps 620 mmHg 65%
    04:00 +13°C° 0 mm 1 mps 620 mmHg 65%
    05:00 +14°C° 0 mm 1 mps 621 mmHg 64%
    06:00 +14°C° 0 mm 1 mps 621 mmHg 64%
    07:00 +18°C° 0 mm 1 mps 622 mmHg 57%
    08:00 +19°C° 0 mm 2 mps 623 mmHg 51%
    09:00 +21°C° 0 mm 3 mps 624 mmHg 44%
    10:00 +22°C° 0 mm 3 mps 624 mmHg 42%
    11:00 +23°C° 0 mm 4 mps 624 mmHg 40%
    12:00 +25°C° 0 mm 4 mps 624 mmHg 38%
    13:00 +25°C° 0 mm 4 mps 624 mmHg 38%
    14:00 +25°C° 0 mm 4 mps 624 mmHg 37%
    15:00 +25°C° 0 mm 4 mps 623 mmHg 37%
    16:00 +24°C° 0 mm 3 mps 623 mmHg 42%
    17:00 +22°C° 0 mm 3 mps 623 mmHg 47%
    18:00 +21°C° 0 mm 2 mps 622 mmHg 52%
    19:00 +19°C° 0 mm 2 mps 622 mmHg 61%
    20:00 +18°C° 0 mm 1 mps 621 mmHg 69%
    21:00 +14°C° 0 mm 1 mps 621 mmHg 78%
    22:00 +14°C° 0 mm 1 mps 620 mmHg 79%
    23:00 +14°C° 0 mm 1 mps 620 mmHg 80%

    31 July, Monday

    Time Temperature Precipitation Wind Pressure Humidity
    00:00 +13°C° 0 mm 1 mps 620 mmHg 81%
    01:00 +13°C° 0 mm 1 mps 619 mmHg 81%
    02:00 +13°C° 0 mm 1 mps 619 mmHg 81%
    03:00 +13°C° 0 mm 1 mps 619 mmHg 82%
    04:00 +13°C° 0 mm 1 mps 619 mmHg 76%
    05:00 +14°C° 0 mm 2 mps 619 mmHg 70%
    06:00 +14°C° 0 mm 2 mps 619 mmHg 64%
    07:00 +17°C° 0 mm 2 mps 620 mmHg 57%
    08:00 +19°C° 0 mm 3 mps 621 mmHg 49%
    09:00 +22°C° 0 mm 3 mps 622 mmHg 42%
    10:00 +23°C° 0 mm 4 mps 623 mmHg 40%
    11:00 +25°C° 0 mm 4 mps 623 mmHg 37%
    12:00 +26°C° 0 mm 5 mps 623 mmHg 35%
    13:00 +26°C° 0 mm 5 mps 623 mmHg 36%
    14:00 +26°C° 0 mm 5 mps 622 mmHg 37%
    15:00 +26°C° 0 mm 5 mps 622 mmHg 37%
    16:00 +23°C° 0.1 mm 5 mps 621 mmHg 42%
    17:00 +22°C° 0.1 mm 4 mps 621 mmHg 48%
    18:00 +21°C° 0.1 mm 3 mps 620 mmHg 53%
    19:00 +19°C° 0 mm 3 mps 620 mmHg 59%
    20:00 +17°C° 0 mm 2 mps 620 mmHg 65%
    21:00 +15°C° 0 mm 2 mps 619 mmHg 71%
    22:00 +14°C° 0.1 mm 1 mps 619 mmHg 69%
    23:00 +14°C° 0.1 mm 1 mps 619 mmHg 68%

    1 August, Tuesday

    Time Temperature Precipitation Wind Pressure Humidity
    00:00 +13°C° 0.1 mm 1 mps 619 mmHg 66%
    01:00 +13°C° 0.4 mm 1 mps 619 mmHg 67%
    02:00 +13°C° 0.4 mm 1 mps 619 mmHg 69%
    03:00 +12°C° 0.4 mm 1 mps 618 mmHg 70%
    04:00 +13°C° 0.6 mm 1 mps 619 mmHg 72%
    05:00 +13°C° 0.6 mm 1 mps 619 mmHg 73%
    06:00 +13°C° 0.6 mm 1 mps 619 mmHg 75%
    07:00 +15°C° 0.2 mm 1 mps 620 mmHg 70%
    08:00 +17°C° 0.2 mm 2 mps 621 mmHg 65%
    09:00 +18°C° 0.2 mm 2 mps 622 mmHg 60%
    10:00 +19°C° 0.1 mm 2 mps 622 mmHg 58%
    11:00 +20°C° 0.1 mm 3 mps 622 mmHg 56%
    12:00 +20°C° 0.1 mm 3 mps 623 mmHg 54%
    13:00 +20°C° 0.6 mm 3 mps 622 mmHg 55%
    14:00 +20°C° 0.6 mm 3 mps 622 mmHg 56%
    15:00 +20°C° 0.6 mm 3 mps 622 mmHg 57%
    16:00 +19°C° 0.4 mm 3 mps 622 mmHg 60%
    17:00 +18°C° 0.4 mm 2 mps 622 mmHg 63%
    18:00 +17°C° 0.4 mm 2 mps 622 mmHg 66%
    19:00 +15°C° 0.1 mm 2 mps 622 mmHg 74%
    20:00 +14°C° 0.1 mm 2 mps 622 mmHg 81%
    21:00 +12°C° 0.1 mm 2 mps 622 mmHg 88%
    22:00 +12°C° 0 mm 2 mps 622 mmHg 88%
    23:00 +12°C° 0 mm 2 mps 622 mmHg 89%
    Show more